QPF
0.02 0.01 0.02 0.02 0.02 0.02 0.02 0.02 0.02 0.01 0.00 0.00 0.01 0.00 0.00 0.01 0.00 0.01 0.01 0.00 0.00 0.00 0.01 0.02 0.06 0.07 0.08 0.05 0.02 0.03 0.05 0.04 0.06 0.08 0.11 0.11 0.11 0.08 0.07 0.08 0.06 0.04 0.03 0.03
0.04 0.02 0.02 0.01 0.01 0.01 0.02 0.02 0.02 0.01 0.00 0.01 0.01 0.01 0.01 0.01 0.01 0.00 0.00 0.00 0.00 0.00 0.01 0.03 0.04 0.04 0.02 0.01 0.02 0.02 0.04 0.03 0.04 0.06 0.07 0.08 0.08 0.07 0.06 0.08 0.07 0.05 0.03 0.04
0.02 0.01 0.01 0.00 0.00 0.01 0.01 0.02 0.02 0.01 0.01 0.01 0.03 0.03 0.03 0.04 0.01 0.00 0.00 0.00 0.00 0.00 0.01 0.02 0.01 0.01 0.02 0.01 0.01 0.02 0.04 0.04 0.04 0.04 0.05 0.06 0.06 0.05 0.07 0.07 0.07 0.05 0.04 0.04
0.01 0.00 0.00 0.00 0.00 0.00 0.00 0.00 0.01 0.00 0.01 0.02 0.02 0.04 0.05 0.06 0.03 0.01 0.00 0.00 0.00 0.00 0.01 0.02 0.01 0.01 0.00 0.01 0.01 0.01 0.02 0.03 0.03 0.04 0.05 0.04 0.05 0.05 0.06 0.07 0.08 0.06 0.07 0.05
0.00 0.00 0.00 0.00 0.00 0.00 0.00 0.00 0.00 0.00 0.01 0.01 0.01 0.03 0.05 0.05 0.02 0.00 0.00 0.00 0.00 0.00 0.00 0.00 0.00 0.01 0.00 0.00 0.01 0.01 0.01 0.03 0.03 0.03 0.03 0.03 0.03 0.04 0.05 0.06 0.06 0.05 0.06 0.05
0.00 0.00 0.00 0.00 0.00 0.00 0.00 0.00 0.00 0.01 0.01 0.02 0.01 0.04 0.08 0.06 0.03 0.01 0.01 0.01 0.01 0.01 0.00 0.00 0.00 0.01 0.01 0.00 0.00 0.01 0.03 0.04 0.03 0.02 0.02 0.02 0.02 0.03 0.04 0.05 0.04 0.04 0.05 0.05
0.00 0.00 0.00 0.00 0.00 0.00 0.00 0.01 0.03 0.03 0.03 0.02 0.01 0.01 0.04 0.05 0.04 0.01 0.00 0.01 0.01 0.00 0.00 0.00 0.00 0.00 0.00 0.00 0.00 0.01 0.04 0.05 0.03 0.02 0.02 0.02 0.02 0.02 0.03 0.03 0.03 0.02 0.02 0.03
0.00 0.00 0.00 0.00 0.00 0.00 0.00 0.03 0.05 0.06 0.05 0.03 0.01 0.02 0.03 0.01 0.01 0.00 0.00 0.01 0.01 0.00 0.00 0.00 0.00 0.00 0.00 0.01 0.02 0.03 0.04 0.04 0.03 0.02 0.01 0.02 0.02 0.02 0.02 0.02 0.01 0.01 0.01 0.01
0.01 0.00 0.00 0.00 0.00 0.00 0.00 0.01 0.02 0.02 0.02 0.03 0.03 0.03 0.04 0.02 0.01 0.00 0.00 0.00 0.00 0.00 0.00 0.00 0.00 0.01 0.01 0.02 0.04 0.04 0.02 0.02 0.02 0.01 0.01 0.01 0.01 0.01 0.01 0.01 0.01 0.01 0.01 0.01
0.01 0.00 0.00 0.00 0.00 0.00 0.00 0.00 0.01 0.01 0.02 0.04 0.06 0.07 0.06 0.03 0.01 0.00 0.00 0.00 0.00 0.00 0.00 0.00 0.00 0.01 0.01 0.02 0.05 0.06 0.03 0.01 0.01 0.01 0.02 0.01 0.01 0.01 0.01 0.01 0.01 0.01 0.01 0.01
0.00 0.00 0.00 0.00 0.00 0.00 0.00 0.00 0.00 0.00 0.02 0.05 0.07 0.04 0.03 0.02 0.01 0.01 0.01 0.00 0.00 0.00 0.00 0.00 0.01 0.02 0.02 0.04 0.05 0.05 0.04 0.02 0.02 0.02 0.02 0.02 0.02 0.03 0.02 0.03 0.02 0.02 0.02 0.02
0.00 0.00 0.00 0.00 0.00 0.00 0.00 0.00 0.00 0.01 0.02 0.03 0.03 0.03 0.01 0.01 0.01 0.00 0.00 0.00 0.00 0.00 0.00 0.00 0.01 0.02 0.03 0.05 0.06 0.11 0.08 0.06 0.04 0.03 0.04 0.03 0.05 0.06 0.05 0.04 0.03 0.03 0.02 0.02
0.00 0.00 0.01 0.02 0.00 0.00 0.00 0.00 0.00 0.00 0.01 0.03 0.03 0.02 0.01 0.00 0.01 0.01 0.01 0.00 0.00 0.00 0.00 0.00 0.01 0.02 0.04 0.04 0.04 0.04 0.06 0.08 0.12 0.09 0.06 0.06 0.05 0.06 0.05 0.04 0.03 0.03 0.03 0.03
0.00 0.00 0.01 0.01 0.01 0.00 0.00 0.00 0.00 0.00 0.01 0.02 0.02 0.02 0.01 0.01 0.01 0.01 0.01 0.01 0.00 0.00 0.00 0.00 0.01 0.01 0.02 0.03 0.04 0.03 0.03 0.03 0.04 0.06 0.06 0.06 0.05 0.05 0.04 0.04 0.04 0.04 0.05 0.04
0.00 0.00 0.01 0.01 0.00 0.00 0.00 0.00 0.00 0.00 0.00 0.02 0.02 0.01 0.01 0.01 0.01 0.01 0.00 0.00 0.00 0.00 0.00 0.01 0.01 0.02 0.02 0.03 0.03 0.03 0.03 0.02 0.03 0.04 0.04 0.04 0.04 0.04 0.04 0.04 0.05 0.06 0.06 0.04
0.00 0.00 0.01 0.01 0.00 0.00 0.00 0.00 0.00 0.00 0.00 0.01 0.01 0.00 0.00 0.00 0.01 0.01 0.00 0.00 0.00 0.00 0.00 0.01 0.01 0.01 0.02 0.02 0.02 0.02 0.02 0.02 0.02 0.03 0.03 0.04 0.05 0.05 0.05 0.05 0.06 0.07 0.07 0.06
0.00 0.00 0.00 0.01 0.00 0.00 0.00 0.00 0.00 0.00 0.01 0.03 0.01 0.00 0.00 0.00 0.01 0.01 0.00 0.00 0.00 0.00 0.00 0.00 0.01 0.02 0.02 0.02 0.02 0.02 0.01 0.01 0.01 0.02 0.03 0.05 0.06 0.06 0.07 0.07 0.06 0.06 0.06 0.05
0.00 0.00 0.00 0.00 0.01 0.01 0.01 0.00 0.00 0.00 0.01 0.01 0.00 0.00 0.00 0.01 0.02 0.02 0.01 0.00 0.00 0.00 0.00 0.01 0.02 0.02 0.02 0.02 0.02 0.02 0.02 0.02 0.03 0.04 0.05 0.06 0.07 0.08 0.08 0.08 0.07 0.07 0.06 0.05
0.00 0.00 0.00 0.00 0.01 0.02 0.01 0.01 0.00 0.00 0.00 0.02 0.01 0.00 0.00 0.01 0.01 0.02 0.01 0.00 0.00 0.00 0.00 0.01 0.02 0.02 0.02 0.03 0.03 0.02 0.02 0.02 0.03 0.04 0.05 0.06 0.08 0.08 0.07 0.05 0.05 0.05 0.04 0.03
0.00 0.00 0.00 0.00 0.01 0.03 0.03 0.01 0.01 0.00 0.01 0.01 0.00 0.00 0.00 0.01 0.01 0.03 0.02 0.01 0.01 0.01 0.01 0.01 0.02 0.03 0.03 0.03 0.03 0.03 0.03 0.04 0.04 0.05 0.04 0.04 0.04 0.04 0.03 0.03 0.03 0.03 0.03 0.04
0.00 0.00 0.00 0.00 0.01 0.02 0.01 0.00 0.00 0.01 0.01 0.01 0.00 0.00 0.00 0.01 0.01 0.02 0.04 0.04 0.03 0.01 0.01 0.01 0.02 0.04 0.05 0.05 0.05 0.05 0.05 0.05 0.04 0.04 0.03 0.03 0.03 0.02 0.02 0.02 0.02 0.02 0.02 0.02
0.00 0.00 0.01 0.01 0.02 0.03 0.02 0.01 0.01 0.01 0.01 0.02 0.01 0.00 0.01 0.01 0.01 0.01 0.02 0.04 0.05 0.02 0.01 0.01 0.02 0.04 0.06 0.07 0.06 0.05 0.05 0.04 0.03 0.02 0.02 0.02 0.02 0.02 0.01 0.02 0.01 0.01 0.02 0.02
0.00 0.01 0.02 0.02 0.02 0.01 0.02 0.02 0.02 0.01 0.01 0.01 0.01 0.01 0.01 0.00 0.00 0.01 0.01 0.02 0.02 0.01 0.01 0.02 0.02 0.04 0.06 0.06 0.05 0.03 0.02 0.02 0.01 0.02 0.02 0.03 0.02 0.02 0.02 0.02 0.02 0.02 0.02 0.02
0.02 0.02 0.02 0.02 0.01 0.01 0.01 0.01 0.01 0.00 0.01 0.01 0.02 0.04 0.01 0.00 0.00 0.01 0.00 0.01 0.01 0.01 0.01 0.01 0.02 0.04 0.05 0.04 0.03 0.02 0.02 0.01 0.02 0.03 0.03 0.03 0.03 0.02 0.02 0.02 0.02 0.02 0.02 0.02
0.03 0.03 0.03 0.03 0.04 0.03 0.01 0.01 0.01 0.01 0.01 0.02 0.03 0.03 0.02 0.01 0.00 0.00 0.00 0.01 0.01 0.01 0.01 0.01 0.02 0.03 0.04 0.03 0.03 0.02 0.02 0.02 0.03 0.03 0.03 0.03 0.03 0.02 0.02 0.03 0.02 0.02 0.03 0.03
0.02 0.03 0.06 0.08 0.07 0.05 0.03 0.01 0.01 0.01 0.01 0.01 0.02 0.02 0.03 0.02 0.01 0.01 0.01 0.01 0.02 0.01 0.01 0.02 0.03 0.03 0.04 0.04 0.03 0.02 0.02 0.03 0.03 0.03 0.02 0.02 0.02 0.02 0.02 0.02 0.02 0.01 0.01 0.01
MSLP
1010.41 1011.17 1011.73 1012.10 1012.32 1012.46 1012.58 1012.72 1012.92 1013.15 1013.39 1013.59 1013.70 1013.68 1013.54 1013.28 1012.98 1012.66 1012.40 1012.23 1012.17 1012.23 1012.36 1012.52 1012.66 1012.71 1012.66 1012.48 1012.18 1011.78 1011.32 1010.85 1010.40 1010.00 1009.65 1009.36 1009.12 1008.90 1008.68 1008.45 1008.19 1007.90 1007.59 1007.29
1010.81 1011.44 1011.86 1012.08 1012.17 1012.23 1012.31 1012.47 1012.73 1013.05 1013.39 1013.68 1013.85 1013.88 1013.75 1013.49 1013.16 1012.83 1012.56 1012.40 1012.38 1012.48 1012.66 1012.86 1013.03 1013.11 1013.07 1012.89 1012.60 1012.22 1011.78 1011.35 1010.95 1010.59 1010.28 1010.01 1009.76 1009.51 1009.24 1008.95 1008.63 1008.31 1007.98 1007.68
1010.79 1011.29 1011.58 1011.71 1011.74 1011.78 1011.90 1012.13 1012.49 1012.92 1013.35 1013.72 1013.95 1014.00 1013.87 1013.60 1013.26 1012.91 1012.65 1012.51 1012.52 1012.65 1012.88 1013.12 1013.32 1013.41 1013.38 1013.22 1012.95 1012.60 1012.22 1011.84 1011.50 1011.20 1010.94 1010.69 1010.44 1010.16 1009.85 1009.51 1009.15 1008.80 1008.47 1008.18
1010.43 1010.83 1011.04 1011.12 1011.17 1011.26 1011.47 1011.83 1012.31 1012.86 1013.39 1013.82 1014.08 1014.13 1013.98 1013.67 1013.29 1012.93 1012.66 1012.53 1012.56 1012.74 1012.99 1013.26 1013.48 1013.60 1013.59 1013.45 1013.21 1012.91 1012.60 1012.30 1012.04 1011.82 1011.62 1011.41 1011.17 1010.88 1010.55 1010.18 1009.79 1009.43 1009.10 1008.84
1009.93 1010.24 1010.40 1010.49 1010.60 1010.80 1011.15 1011.65 1012.28 1012.94 1013.56 1014.03 1014.29 1014.31 1014.10 1013.74 1013.31 1012.91 1012.62 1012.50 1012.54 1012.74 1013.02 1013.32 1013.57 1013.70 1013.71 1013.60 1013.40 1013.16 1012.92 1012.70 1012.54 1012.40 1012.27 1012.12 1011.92 1011.65 1011.31 1010.93 1010.54 1010.18 1009.87 1009.64
1009.48 1009.70 1009.84 1009.96 1010.16 1010.49 1010.99 1011.65 1012.41 1013.18 1013.85 1014.34 1014.57 1014.54 1014.27 1013.83 1013.34 1012.89 1012.58 1012.44 1012.50 1012.72 1013.02 1013.34 1013.61 1013.76 1013.80 1013.72 1013.56 1013.37 1013.19 1013.06 1012.97 1012.92 1012.87 1012.78 1012.62 1012.38 1012.06 1011.70 1011.32 1010.97 1010.69 1010.48
1009.20 1009.34 1009.47 1009.63 1009.91 1010.36 1010.99 1011.78 1012.65 1013.49 1014.20 1014.68 1014.87 1014.78 1014.43 1013.93 1013.38 1012.89 1012.55 1012.42 1012.48 1012.71 1013.04 1013.38 1013.66 1013.84 1013.90 1013.84 1013.72 1013.57 1013.44 1013.37 1013.34 1013.35 1013.36 1013.32 1013.22 1013.02 1012.73 1012.39 1012.03 1011.70 1011.44 1011.25
1009.16 1009.24 1009.34 1009.52 1009.85 1010.38 1011.10 1011.96 1012.88 1013.76 1014.46 1014.92 1015.08 1014.93 1014.54 1013.99 1013.41 1012.90 1012.56 1012.44 1012.52 1012.77 1013.12 1013.48 1013.78 1013.98 1014.05 1014.01 1013.91 1013.78 1013.68 1013.64 1013.65 1013.69 1013.73 1013.73 1013.66 1013.49 1013.24 1012.93 1012.60 1012.29 1012.04 1011.86
1009.34 1009.36 1009.41 1009.58 1009.93 1010.47 1011.20 1012.08 1013.00 1013.86 1014.54 1014.96 1015.08 1014.91 1014.50 1013.96 1013.39 1012.90 1012.60 1012.50 1012.62 1012.89 1013.26 1013.64 1013.96 1014.17 1014.25 1014.22 1014.13 1014.01 1013.91 1013.87 1013.88 1013.93 1013.98 1013.99 1013.94 1013.80 1013.58 1013.29 1012.99 1012.70 1012.46 1012.28
1009.64 1009.61 1009.62 1009.76 1010.06 1010.56 1011.24 1012.05 1012.91 1013.70 1014.32 1014.71 1014.81 1014.65 1014.27 1013.78 1013.28 1012.86 1012.62 1012.58 1012.74 1013.05 1013.44 1013.84 1014.16 1014.38 1014.46 1014.44 1014.34 1014.22 1014.11 1014.05 1014.04 1014.07 1014.11 1014.12 1014.07 1013.95 1013.75 1013.49 1013.21 1012.95 1012.72 1012.54
1009.96 1009.90 1009.88 1009.96 1010.20 1010.60 1011.16 1011.85 1012.58 1013.27 1013.81 1014.15 1014.25 1014.13 1013.83 1013.44 1013.04 1012.75 1012.60 1012.64 1012.86 1013.20 1013.61 1014.00 1014.33 1014.54 1014.62 1014.60 1014.50 1014.36 1014.24 1014.16 1014.13 1014.13 1014.15 1014.14 1014.10 1013.98 1013.80 1013.58 1013.33 1013.09 1012.88 1012.71
1010.21 1010.16 1010.13 1010.16 1010.30 1010.58 1011.00 1011.52 1012.10 1012.64 1013.08 1013.37 1013.48 1013.42 1013.22 1012.96 1012.71 1012.55 1012.52 1012.65 1012.91 1013.28 1013.70 1014.08 1014.39 1014.59 1014.67 1014.65 1014.55 1014.42 1014.29 1014.20 1014.14 1014.13 1014.12 1014.11 1014.06 1013.96 1013.81 1013.61 1013.40 1013.20 1013.02 1012.87
1010.37 1010.38 1010.36 1010.36 1010.42 1010.57 1010.83 1011.16 1011.55 1011.94 1012.27 1012.50 1012.62 1012.62 1012.54 1012.42 1012.32 1012.30 1012.39 1012.59 1012.90 1013.28 1013.68 1014.04 1014.32 1014.50 1014.58 1014.55 1014.46 1014.35 1014.24 1014.14 1014.09 1014.07 1014.06 1014.04 1014.00 1013.91 1013.78 1013.63 1013.46 1013.29 1013.14 1013.02
1010.47 1010.56 1010.59 1010.59 1010.60 1010.64 1010.73 1010.89 1011.09 1011.31 1011.51 1011.68 1011.79 1011.85 1011.88 1011.89 1011.94 1012.05 1012.23 1012.50 1012.83 1013.20 1013.56 1013.88 1014.12 1014.28 1014.34 1014.33 1014.26 1014.18 1014.09 1014.03 1013.99 1013.98 1013.98 1013.96 1013.93 1013.86 1013.75 1013.62 1013.49 1013.36 1013.25 1013.16
1010.57 1010.77 1010.87 1010.90 1010.87 1010.82 1010.78 1010.78 1010.80 1010.86 1010.94 1011.04 1011.14 1011.23 1011.34 1011.47 1011.63 1011.84 1012.10 1012.40 1012.74 1013.08 1013.39 1013.65 1013.85 1013.97 1014.02 1014.02 1013.98 1013.94 1013.90 1013.88 1013.87 1013.88 1013.89 1013.88 1013.84 1013.78 1013.69 1013.58 1013.46 1013.35 1013.26 1013.20
1010.72 1011.02 1011.21 1011.28 1011.24 1011.14 1011.00 1010.86 1010.74 1010.66 1010.62 1010.64 1010.71 1010.82 1010.99 1011.20 1011.44 1011.72 1012.03 1012.35 1012.67 1012.96 1013.22 1013.42 1013.56 1013.65 1013.68 1013.70 1013.69 1013.69 1013.70 1013.72 1013.75 1013.78 1013.79 1013.78 1013.74 1013.66 1013.56 1013.44 1013.32 1013.21 1013.12 1013.06
1010.94 1011.32 1011.58 1011.69 1011.67 1011.54 1011.33 1011.09 1010.86 1010.66 1010.54 1010.48 1010.52 1010.64 1010.84 1011.09 1011.39 1011.72 1012.05 1012.37 1012.66 1012.90 1013.10 1013.23 1013.32 1013.38 1013.40 1013.42 1013.44 1013.48 1013.53 1013.58 1013.64 1013.68 1013.69 1013.66 1013.59 1013.48 1013.34 1013.18 1013.03 1012.89 1012.78 1012.70
1011.19 1011.62 1011.92 1012.06 1012.06 1011.92 1011.68 1011.38 1011.08 1010.80 1010.61 1010.51 1010.52 1010.63 1010.84 1011.13 1011.46 1011.82 1012.16 1012.47 1012.72 1012.92 1013.06 1013.14 1013.18 1013.20 1013.22 1013.24 1013.28 1013.34 1013.41 1013.48 1013.55 1013.58 1013.57 1013.50 1013.38 1013.21 1013.01 1012.79 1012.58 1012.38 1012.23 1012.11
1011.40 1011.82 1012.13 1012.29 1012.30 1012.16 1011.92 1011.61 1011.27 1010.97 1010.74 1010.62 1010.61 1010.72 1010.95 1011.26 1011.60 1011.97 1012.31 1012.61 1012.84 1013.00 1013.10 1013.14 1013.14 1013.13 1013.12 1013.14 1013.18 1013.25 1013.32 1013.40 1013.44 1013.45 1013.40 1013.28 1013.10 1012.86 1012.58 1012.29 1012.00 1011.75 1011.54 1011.38
1011.47 1011.84 1012.12 1012.28 1012.30 1012.19 1011.97 1011.67 1011.36 1011.06 1010.84 1010.72 1010.72 1010.85 1011.08 1011.40 1011.77 1012.14 1012.48 1012.76 1012.98 1013.11 1013.17 1013.18 1013.16 1013.12 1013.09 1013.09 1013.12 1013.17 1013.23 1013.28 1013.30 1013.26 1013.16 1012.98 1012.73 1012.42 1012.08 1011.72 1011.38 1011.06 1010.80 1010.60
1011.32 1011.62 1011.87 1012.02 1012.05 1011.97 1011.80 1011.56 1011.29 1011.04 1010.86 1010.78 1010.81 1010.96 1011.21 1011.54 1011.91 1012.28 1012.62 1012.89 1013.09 1013.21 1013.25 1013.23 1013.18 1013.12 1013.06 1013.03 1013.03 1013.05 1013.08 1013.08 1013.06 1012.97 1012.82 1012.59 1012.29 1011.93 1011.54 1011.14 1010.75 1010.40 1010.11 1009.88
1010.97 1011.20 1011.39 1011.53 1011.58 1011.56 1011.45 1011.29 1011.10 1010.94 1010.83 1010.80 1010.87 1011.05 1011.31 1011.65 1012.02 1012.38 1012.71 1012.98 1013.16 1013.26 1013.28 1013.24 1013.17 1013.07 1012.98 1012.92 1012.87 1012.84 1012.81 1012.77 1012.70 1012.57 1012.38 1012.11 1011.78 1011.40 1010.99 1010.57 1010.18 1009.82 1009.53 1009.30
1010.46 1010.62 1010.79 1010.92 1011.01 1011.04 1011.02 1010.96 1010.88 1010.81 1010.78 1010.82 1010.94 1011.14 1011.42 1011.75 1012.11 1012.46 1012.76 1013.01 1013.18 1013.26 1013.26 1013.20 1013.09 1012.96 1012.83 1012.71 1012.60 1012.51 1012.43 1012.33 1012.21 1012.04 1011.82 1011.54 1011.21 1010.84 1010.44 1010.04 1009.68 1009.35 1009.08 1008.89
1009.90 1010.03 1010.18 1010.33 1010.46 1010.57 1010.64 1010.68 1010.70 1010.74 1010.80 1010.90 1011.06 1011.28 1011.56 1011.88 1012.20 1012.52 1012.80 1013.02 1013.15 1013.21 1013.18 1013.09 1012.95 1012.78 1012.60 1012.41 1012.24 1012.08 1011.94 1011.78 1011.61 1011.41 1011.17 1010.90 1010.58 1010.24 1009.90 1009.56 1009.24 1008.96 1008.74 1008.59
1009.43 1009.55 1009.71 1009.89 1010.08 1010.26 1010.41 1010.56 1010.68 1010.80 1010.93 1011.09 1011.28 1011.51 1011.77 1012.05 1012.34 1012.61 1012.85 1013.02 1013.12 1013.14 1013.09 1012.96 1012.78 1012.56 1012.32 1012.07 1011.83 1011.60 1011.38 1011.17 1010.95 1010.72 1010.48 1010.22 1009.94 1009.65 1009.36 1009.08 1008.83 1008.62 1008.46 1008.34
1009.17 1009.30 1009.48 1009.70 1009.94 1010.18 1010.42 1010.63 1010.84 1011.02 1011.21 1011.40 1011.60 1011.82 1012.05 1012.29 1012.52 1012.74 1012.92 1013.05 1013.11 1013.10 1013.00 1012.84 1012.62 1012.35 1012.05 1011.74 1011.42 1011.12 1010.83 1010.56 1010.30 1010.04 1009.80 1009.55 1009.31 1009.07 1008.84 1008.63 1008.44 1008.28 1008.17 1008.09
Thickness
5854 5841 5832 5840 5846 5847 5845 5838 5833 5845 5863 5854 5844 5842 5847 5853 5852 5846 5842 5840 5837 5833 5834 5832 5829 5825 5820 5815 5811 5807 5804 5802 5800 5796 5792 5790 5789 5791 5790 5789 5787 5785 5784 5784
5839 5834 5851 5859 5858 5853 5845 5835 5837 5848 5862 5854 5844 5842 5851 5855 5851 5851 5846 5842 5839 5836 5833 5830 5828 5825 5820 5815 5811 5807 5803 5801 5799 5796 5794 5792 5790 5790 5789 5787 5785 5784 5783 5782
5832 5848 5863 5857 5850 5843 5841 5837 5836 5839 5851 5857 5844 5831 5840 5851 5855 5854 5852 5850 5845 5840 5833 5829 5826 5824 5821 5815 5811 5809 5804 5800 5798 5796 5794 5792 5789 5786 5785 5783 5782 5783 5782 5781
5843 5859 5858 5851 5847 5846 5836 5853 5850 5845 5835 5830 5836 5808 5829 5840 5843 5847 5847 5848 5845 5843 5839 5832 5828 5823 5821 5818 5814 5808 5804 5800 5797 5795 5791 5787 5783 5780 5780 5780 5780 5781 5780 5779
5844 5857 5853 5846 5853 5855 5849 5862 5856 5850 5839 5828 5835 5819 5821 5839 5831 5838 5845 5847 5846 5844 5841 5835 5832 5827 5825 5821 5816 5808 5803 5798 5796 5793 5790 5786 5782 5781 5781 5780 5778 5777 5777 5777
5854 5869 5866 5860 5866 5866 5863 5856 5851 5849 5837 5809 5829 5821 5808 5829 5834 5837 5843 5845 5845 5844 5842 5838 5836 5830 5826 5822 5816 5810 5802 5796 5794 5791 5789 5784 5781 5779 5776 5775 5773 5773 5773 5773
5840 5853 5867 5871 5855 5860 5856 5834 5811 5805 5805 5810 5838 5827 5820 5841 5849 5846 5843 5843 5845 5844 5840 5835 5831 5825 5822 5818 5814 5809 5801 5795 5793 5790 5787 5784 5781 5778 5774 5773 5772 5770 5770 5768
5823 5828 5856 5864 5855 5845 5847 5835 5805 5788 5792 5812 5831 5820 5829 5851 5855 5855 5851 5847 5844 5841 5838 5833 5829 5825 5820 5816 5810 5805 5799 5794 5791 5788 5784 5782 5779 5777 5775 5773 5772 5770 5768 5767
5825 5830 5864 5870 5871 5860 5841 5837 5844 5823 5816 5806 5812 5823 5836 5849 5848 5848 5846 5844 5841 5839 5836 5832 5828 5824 5819 5814 5809 5803 5797 5793 5790 5787 5783 5780 5777 5775 5772 5771 5770 5768 5766 5766
5841 5825 5849 5865 5869 5867 5857 5848 5836 5818 5794 5784 5796 5802 5808 5825 5831 5838 5838 5837 5838 5837 5834 5829 5826 5822 5819 5814 5809 5803 5797 5792 5789 5786 5782 5779 5776 5773 5771 5769 5766 5765 5763 5761
5850 5828 5836 5848 5844 5842 5847 5842 5836 5825 5816 5791 5781 5797 5829 5828 5834 5834 5835 5837 5835 5833 5830 5826 5822 5818 5815 5812 5807 5801 5797 5792 5788 5785 5781 5778 5774 5772 5770 5767 5764 5762 5759 5758
5848 5831 5817 5836 5858 5865 5854 5848 5841 5815 5806 5809 5799 5801 5842 5840 5841 5836 5833 5833 5832 5830 5827 5823 5819 5814 5810 5806 5803 5797 5794 5791 5788 5784 5780 5775 5773 5770 5766 5762 5760 5758 5755 5753
5837 5822 5800 5810 5828 5845 5842 5847 5848 5841 5823 5809 5796 5803 5841 5840 5836 5832 5828 5827 5826 5823 5820 5817 5813 5807 5803 5800 5797 5794 5791 5789 5787 5782 5777 5772 5768 5764 5761 5759 5757 5754 5751 5748
5836 5819 5806 5795 5808 5822 5824 5836 5842 5833 5812 5803 5805 5808 5822 5825 5821 5821 5820 5820 5820 5815 5812 5809 5805 5800 5797 5793 5790 5788 5786 5785 5783 5778 5773 5768 5764 5761 5758 5755 5753 5750 5747 5743
5831 5811 5815 5820 5827 5827 5823 5828 5834 5827 5821 5810 5809 5812 5814 5819 5819 5817 5816 5812 5810 5806 5805 5801 5797 5793 5790 5787 5784 5783 5781 5779 5776 5772 5767 5763 5761 5758 5754 5751 5748 5745 5741 5739
5822 5805 5804 5805 5820 5822 5816 5824 5828 5825 5825 5820 5815 5808 5819 5820 5819 5812 5808 5804 5801 5800 5797 5795 5791 5786 5783 5780 5778 5777 5774 5772 5770 5765 5761 5758 5755 5752 5748 5745 5742 5738 5735 5732
5807 5797 5787 5787 5806 5806 5799 5817 5820 5818 5821 5815 5803 5806 5813 5806 5805 5802 5800 5799 5798 5795 5792 5789 5785 5781 5778 5776 5774 5770 5769 5767 5763 5759 5755 5752 5749 5745 5742 5739 5735 5731 5728 5724
5796 5788 5784 5781 5782 5765 5799 5830 5826 5815 5813 5816 5811 5813 5809 5803 5805 5804 5800 5795 5793 5790 5786 5783 5780 5777 5775 5773 5769 5766 5763 5759 5754 5750 5746 5743 5740 5737 5734 5731 5728 5724 5721 5718
5803 5784 5774 5770 5765 5774 5797 5814 5816 5802 5793 5808 5805 5805 5807 5806 5796 5790 5794 5795 5791 5787 5783 5779 5777 5773 5769 5766 5762 5757 5753 5749 5745 5741 5737 5735 5733 5729 5726 5722 5719 5716 5713 5710
5797 5787 5770 5766 5754 5752 5781 5806 5817 5803 5776 5797 5799 5795 5794 5792 5775 5773 5785 5786 5784 5781 5778 5773 5770 5765 5760 5757 5754 5748 5743 5740 5736 5733 5730 5728 5725 5722 5718 5714 5712 5709 5707 5704
5769 5768 5762 5759 5754 5762 5789 5801 5802 5769 5765 5790 5792 5790 5787 5779 5775 5776 5778 5776 5773 5771 5769 5765 5760 5754 5750 5749 5744 5739 5735 5731 5729 5727 5724 5720 5717 5714 5711 5708 5705 5702 5700 5697
5762 5758 5755 5755 5746 5747 5782 5784 5771 5768 5781 5782 5780 5781 5778 5774 5774 5771 5767 5765 5761 5759 5757 5754 5748 5743 5741 5739 5734 5729 5726 5725 5723 5719 5716 5712 5709 5707 5705 5700 5697 5695 5692 5689
5765 5763 5760 5755 5753 5766 5774 5771 5775 5776 5771 5771 5771 5771 5770 5765 5762 5760 5757 5754 5751 5749 5747 5744 5739 5734 5731 5730 5726 5720 5718 5717 5714 5710 5707 5704 5702 5700 5697 5692 5689 5687 5685 5682
5758 5767 5759 5753 5759 5763 5766 5767 5768 5769 5764 5764 5764 5763 5761 5755 5752 5750 5747 5744 5741 5739 5736 5733 5729 5724 5721 5720 5717 5714 5712 5709 5705 5701 5699 5697 5694 5691 5689 5686 5683 5680 5677 5673
5742 5749 5745 5742 5748 5752 5752 5755 5757 5758 5758 5756 5755 5754 5752 5748 5744 5741 5737 5734 5732 5729 5726 5724 5720 5715 5712 5711 5708 5707 5704 5701 5696 5693 5691 5690 5687 5685 5681 5677 5674 5672 5668 5665
5740 5738 5732 5729 5736 5737 5737 5746 5750 5745 5744 5745 5744 5743 5744 5741 5736 5732 5729 5726 5723 5719 5717 5714 5711 5708 5706 5703 5701 5699 5697 5693 5688 5685 5684 5683 5681 5678 5675 5670 5667 5664 5661 5658